• In Moldova, Republic
  • List of Countries
  • For 7 days
  • Water Temperature
  • Satellite Maps
  • Weather Map
  • Weather Widgets
  • user-avatar
    Login

    Hourly Weather Newcastle

    Today, 22 January, Monday

    Time Temperature Precipitation Wind Pressure Humidity
    00:00 +21°C° 0 mm 5 mps 757 mmHg 86%
    01:00 +21°C° 0 mm 5 mps 757 mmHg 87%
    02:00 +20°C° 0 mm 4 mps 757 mmHg 88%
    03:00 +20°C° 0 mm 4 mps 757 mmHg 89%
    04:00 +19°C° 0 mm 4 mps 756 mmHg 90%
    05:00 +21°C° 0 mm 4 mps 757 mmHg 82%
    06:00 +23°C° 0 mm 4 mps 757 mmHg 74%
    07:00 +25°C° 0 mm 4 mps 757 mmHg 66%
    08:00 +29°C° 0 mm 3 mps 757 mmHg 54%
    09:00 +34°C° 0 mm 3 mps 757 mmHg 41%
    10:00 +38°C° 0 mm 3 mps 757 mmHg 28%
    11:00 +41°C° 0 mm 4 mps 756 mmHg 24%
    12:00 +43°C° 0 mm 4 mps 756 mmHg 20%
    13:00 +46°C° 0 mm 5 mps 755 mmHg 16%
    14:00 +45°C° 0 mm 5 mps 755 mmHg 18%
    15:00 +44°C° 0 mm 6 mps 755 mmHg 19%
    16:00 +43°C° 0 mm 7 mps 754 mmHg 21%
    17:00 +39°C° 0 mm 7 mps 755 mmHg 28%
    18:00 +35°C° 0 mm 7 mps 755 mmHg 35%
    19:00 +32°C° 0 mm 7 mps 755 mmHg 43%
    20:00 +30°C° 0 mm 7 mps 756 mmHg 46%
    21:00 +29°C° 0 mm 6 mps 756 mmHg 50%
    22:00 +28°C° 0 mm 6 mps 756 mmHg 54%
    23:00 +27°C° 0 mm 6 mps 756 mmHg 56%

    Tomorrow, 23 January, Tuesday

    Time Temperature Precipitation Wind Pressure Humidity
    00:00 +26°C° 0 mm 5 mps 756 mmHg 58%
    01:00 +25°C° 0 mm 5 mps 756 mmHg 60%
    02:00 +25°C° 0 mm 4 mps 756 mmHg 62%
    03:00 +23°C° 0 mm 4 mps 756 mmHg 65%
    04:00 +22°C° 0 mm 3 mps 756 mmHg 67%
    05:00 +24°C° 0 mm 3 mps 756 mmHg 64%
    06:00 +25°C° 0 mm 3 mps 757 mmHg 61%
    07:00 +26°C° 0 mm 2 mps 757 mmHg 58%
    08:00 +30°C° 0 mm 2 mps 757 mmHg 49%
    09:00 +34°C° 0 mm 2 mps 757 mmHg 41%
    10:00 +36°C° 0 mm 1 mps 758 mmHg 32%
    11:00 +37°C° 0 mm 2 mps 757 mmHg 32%
    12:00 +37°C° 0 mm 3 mps 757 mmHg 31%
    13:00 +37°C° 0 mm 4 mps 756 mmHg 31%
    14:00 +37°C° 0 mm 5 mps 756 mmHg 32%
    15:00 +36°C° 0 mm 6 mps 756 mmHg 33%
    16:00 +36°C° 0 mm 6 mps 755 mmHg 34%
    17:00 +34°C° 0 mm 6 mps 756 mmHg 41%
    18:00 +32°C° 0 mm 6 mps 756 mmHg 47%
    19:00 +29°C° 0 mm 5 mps 756 mmHg 54%
    20:00 +28°C° 0 mm 5 mps 757 mmHg 59%
    21:00 +27°C° 0 mm 4 mps 757 mmHg 64%
    22:00 +26°C° 0 mm 4 mps 758 mmHg 69%
    23:00 +26°C° 0 mm 4 mps 757 mmHg 72%

    Day after tomorrow, 24 January, Wednesday

    Time Temperature Precipitation Wind Pressure Humidity
    00:00 +25°C° 0 mm 4 mps 757 mmHg 75%
    01:00 +25°C° 0 mm 5 mps 757 mmHg 78%
    02:00 +23°C° 0 mm 4 mps 757 mmHg 82%
    03:00 +22°C° 0 mm 4 mps 757 mmHg 87%
    04:00 +21°C° 0 mm 3 mps 757 mmHg 91%
    05:00 +22°C° 0 mm 3 mps 757 mmHg 84%
    06:00 +25°C° 0 mm 3 mps 758 mmHg 78%
    07:00 +26°C° 0 mm 3 mps 758 mmHg 71%
    08:00 +29°C° 0 mm 3 mps 758 mmHg 61%
    09:00 +33°C° 0 mm 3 mps 758 mmHg 50%
    10:00 +36°C° 0 mm 3 mps 758 mmHg 40%
    11:00 +37°C° 0 mm 4 mps 757 mmHg 36%
    12:00 +39°C° 0 mm 5 mps 757 mmHg 32%
    13:00 +41°C° 0 mm 6 mps 756 mmHg 27%
    14:00 +40°C° 0 mm 6 mps 756 mmHg 30%
    15:00 +39°C° 0 mm 7 mps 755 mmHg 33%
    16:00 +38°C° 0 mm 7 mps 755 mmHg 36%
    17:00 +35°C° 0 mm 7 mps 755 mmHg 45%
    18:00 +32°C° 0 mm 7 mps 756 mmHg 55%
    19:00 +29°C° 0 mm 7 mps 756 mmHg 64%
    20:00 +28°C° 0 mm 7 mps 756 mmHg 67%
    21:00 +27°C° 0 mm 7 mps 757 mmHg 71%
    22:00 +26°C° 0 mm 6 mps 757 mmHg 75%
    23:00 +24°C° 0 mm 6 mps 757 mmHg 78%

    25 January, Thursday

    Time Temperature Precipitation Wind Pressure Humidity
    00:00 +24°C° 0 mm 6 mps 757 mmHg 81%
    01:00 +23°C° 0 mm 5 mps 757 mmHg 84%
    02:00 +22°C° 0 mm 5 mps 757 mmHg 86%
    03:00 +22°C° 0 mm 4 mps 757 mmHg 89%
    04:00 +21°C° 0 mm 4 mps 757 mmHg 91%
    05:00 +22°C° 0 mm 4 mps 757 mmHg 87%
    06:00 +23°C° 0 mm 4 mps 758 mmHg 82%
    07:00 +25°C° 0 mm 3 mps 758 mmHg 77%
    08:00 +29°C° 0 mm 3 mps 758 mmHg 65%
    09:00 +33°C° 0 mm 3 mps 758 mmHg 54%
    10:00 +36°C° 0 mm 3 mps 758 mmHg 42%
    11:00 +37°C° 0 mm 4 mps 757 mmHg 40%
    12:00 +37°C° 0 mm 5 mps 757 mmHg 38%
    13:00 +39°C° 0 mm 6 mps 756 mmHg 35%
    14:00 +38°C° 0 mm 6 mps 756 mmHg 38%
    15:00 +36°C° 0 mm 7 mps 756 mmHg 41%
    16:00 +36°C° 0 mm 7 mps 755 mmHg 45%
    17:00 +34°C° 0 mm 7 mps 756 mmHg 53%
    18:00 +32°C° 0 mm 7 mps 756 mmHg 62%
    19:00 +28°C° 0 mm 7 mps 757 mmHg 70%
    20:00 +28°C° 0 mm 6 mps 757 mmHg 75%
    21:00 +27°C° 0 mm 5 mps 758 mmHg 80%
    22:00 +26°C° 0 mm 4 mps 758 mmHg 86%
    23:00 +26°C° 0 mm 4 mps 758 mmHg 86%

    26 January, Friday

    Time Temperature Precipitation Wind Pressure Humidity
    00:00 +25°C° 0 mm 4 mps 758 mmHg 87%
    01:00 +25°C° 0 mm 4 mps 757 mmHg 87%
    02:00 +25°C° 0 mm 4 mps 757 mmHg 88%
    03:00 +25°C° 0 mm 4 mps 757 mmHg 89%
    04:00 +25°C° 0 mm 4 mps 757 mmHg 90%
    05:00 +25°C° 0 mm 4 mps 758 mmHg 86%
    06:00 +26°C° 0 mm 4 mps 758 mmHg 82%
    07:00 +27°C° 0 mm 4 mps 758 mmHg 78%
    08:00 +29°C° 0 mm 4 mps 758 mmHg 68%
    09:00 +33°C° 0 mm 4 mps 758 mmHg 58%
    10:00 +36°C° 0 mm 4 mps 758 mmHg 48%
    11:00 +36°C° 0 mm 5 mps 758 mmHg 45%
    12:00 +37°C° 0 mm 5 mps 757 mmHg 41%
    13:00 +39°C° 0 mm 6 mps 757 mmHg 38%
    14:00 +38°C° 0 mm 6 mps 757 mmHg 42%
    15:00 +38°C° 0 mm 7 mps 757 mmHg 45%
    16:00 +36°C° 0 mm 7 mps 756 mmHg 49%
    17:00 +34°C° 0 mm 7 mps 757 mmHg 56%
    18:00 +32°C° 0 mm 7 mps 757 mmHg 64%
    19:00 +29°C° 0 mm 7 mps 757 mmHg 71%
    20:00 +28°C° 0 mm 6 mps 758 mmHg 75%
    21:00 +27°C° 0 mm 5 mps 758 mmHg 79%
    22:00 +26°C° 0 mm 5 mps 759 mmHg 83%
    23:00 +26°C° 0 mm 5 mps 759 mmHg 84%

    27 January, Saturday

    Time Temperature Precipitation Wind Pressure Humidity
    00:00 +26°C° 0 mm 5 mps 758 mmHg 85%
    01:00 +24°C° 0 mm 6 mps 758 mmHg 86%
    02:00 +25°C° 0 mm 5 mps 758 mmHg 89%
    03:00 +23°C° 0 mm 4 mps 758 mmHg 91%
    04:00 +24°C° 0 mm 3 mps 758 mmHg 94%
    05:00 +25°C° 0 mm 3 mps 758 mmHg 89%
    06:00 +26°C° 0 mm 3 mps 759 mmHg 83%
    07:00 +27°C° 0 mm 4 mps 759 mmHg 78%
    08:00 +29°C° 0 mm 4 mps 759 mmHg 68%
    09:00 +32°C° 0 mm 4 mps 759 mmHg 58%
    10:00 +35°C° 0 mm 4 mps 759 mmHg 48%
    11:00 +36°C° 0 mm 5 mps 759 mmHg 45%
    12:00 +36°C° 0 mm 6 mps 759 mmHg 43%
    13:00 +38°C° 0 mm 6 mps 758 mmHg 40%
    14:00 +36°C° 0 mm 6 mps 758 mmHg 44%
    15:00 +36°C° 0 mm 7 mps 757 mmHg 47%
    16:00 +35°C° 0 mm 7 mps 757 mmHg 51%
    17:00 +33°C° 0 mm 7 mps 757 mmHg 58%
    18:00 +30°C° 0 mm 7 mps 758 mmHg 64%
    19:00 +28°C° 0 mm 6 mps 758 mmHg 71%
    20:00 +27°C° 0 mm 6 mps 758 mmHg 76%
    21:00 +26°C° 0 mm 6 mps 759 mmHg 80%
    22:00 +26°C° 0 mm 5 mps 759 mmHg 84%
    23:00 +25°C° 0 mm 5 mps 759 mmHg 86%
    Show more